TimeMST,TemperatureF,Dew PointF,Humidity,Sea Level PressureIn,VisibilityMPH,Wind Direction,Wind SpeedMPH,Gust SpeedMPH,PrecipitationIn,Events,Conditions,WindDirDegrees,DateUTC
12:53 AM,25.0,19.0,78,29.71,10.0,NE,4.6,-,N/A,,Clear,40,2013-12-19 07:53:00
1:53 AM,24.1,19.0,81,29.72,10.0,North,3.5,-,N/A,,Clear,10,2013-12-19 08:53:00
2:53 AM,21.9,19.0,89,29.74,10.0,Calm,Calm,-,N/A,,Clear,0,2013-12-19 09:53:00
3:25 AM,19.4,17.6,93,29.70,10.0,ENE,4.6,-,N/A,,Scattered Clouds,60,2013-12-19 10:25:00
3:34 AM,19.4,17.6,93,29.70,4.0,ENE,6.9,-,N/A,,Mostly Cloudy,60,2013-12-19 10:34:00
3:40 AM,19.4,19.4,100,29.69,1.8,NE,6.9,-,N/A,,Mostly Cloudy,40,2013-12-19 10:40:00
3:51 AM,21.2,19.4,93,29.69,0.5,NE,5.8,-,N/A,Fog,Light Freezing Fog,40,2013-12-19 10:51:00
3:53 AM,21.0,19.9,96,29.76,0.5,NE,8.1,-,N/A,Fog,Light Freezing Fog,50,2013-12-19 10:53:00
4:40 AM,19.4,19.4,100,29.68,0.2,ENE,12.7,-,N/A,Fog,Light Freezing Fog,60,2013-12-19 11:40:00
4:53 AM,19.9,19.0,96,29.77,0.2,ENE,12.7,-,N/A,Fog,Light Freezing Fog,60,2013-12-19 11:53:00
5:53 AM,19.0,18.0,96,29.79,0.2,ENE,8.1,-,N/A,Fog,Light Freezing Fog,70,2013-12-19 12:53:00
6:17 AM,19.4,17.6,93,29.69,0.5,NE,11.5,-,N/A,Fog,Light Freezing Fog,50,2013-12-19 13:17:00
6:49 AM,19.4,17.6,93,29.69,0.2,ENE,8.1,-,N/A,Fog,Light Freezing Fog,70,2013-12-19 13:49:00
6:53 AM,19.0,17.1,92,29.80,0.2,ENE,11.5,-,N/A,Fog,Light Freezing Fog,70,2013-12-19 13:53:00
7:53 AM,18.0,17.1,96,29.82,0.2,ENE,9.2,-,0.00,Fog-Snow,Light Snow,70,2013-12-19 14:53:00
8:15 AM,17.6,15.8,93,29.70,0.5,ENE,10.4,-,0.01,Fog-Snow,Snow,70,2013-12-19 15:15:00
8:37 AM,17.6,15.8,93,29.70,0.5,ENE,11.5,-,0.03,Fog-Snow,Snow,70,2013-12-19 15:37:00
8:50 AM,17.6,15.8,93,29.70,0.2,NE,9.2,-,0.04,Fog-Snow,Snow,50,2013-12-19 15:50:00
8:53 AM,17.1,15.1,92,29.82,0.2,NE,8.1,-,0.04,Fog-Snow,Snow,50,2013-12-19 15:53:00
9:41 AM,15.8,12.2,86,29.69,0.5,NE,11.5,-,0.05,Fog-Snow,Snow,50,2013-12-19 16:41:00
9:53 AM,14.0,10.9,88,29.83,0.5,NE,12.7,-,0.06,Fog-Snow,Light Snow,50,2013-12-19 16:53:00
10:07 AM,12.2,10.4,92,29.70,0.8,NE,13.8,-,0.01,Snow,Light Snow,50,2013-12-19 17:07:00
10:13 AM,12.2,10.4,92,29.71,0.2,NE,11.5,-,0.01,Fog-Snow,Snow,50,2013-12-19 17:13:00
10:24 AM,12.2,8.6,85,29.72,0.2,ENE,9.2,-,0.04,Fog-Snow,Snow,60,2013-12-19 17:24:00
10:53 AM,12.0,9.0,88,29.88,0.2,NE,10.4,-,0.12,Fog-Snow,Heavy Snow,50,2013-12-19 17:53:00
11:19 AM,12.2,8.6,85,29.73,0.2,NE,6.9,-,0.05,Fog-Snow,Snow,50,2013-12-19 18:19:00
11:53 AM,10.9,8.1,88,29.88,0.2,NE,6.9,-,0.11,Fog-Snow,Snow,50,2013-12-19 18:53:00
12:05 PM,10.4,8.6,92,29.71,0.5,NE,6.9,-,0.01,Fog-Snow,Snow,50,2013-12-19 19:05:00
12:17 PM,10.4,8.6,92,29.70,1.0,ENE,6.9,-,0.02,Snow,Light Snow,60,2013-12-19 19:17:00
12:30 PM,12.2,8.6,85,29.71,0.5,NE,4.6,-,0.02,Fog-Snow,Snow,50,2013-12-19 19:30:00
12:43 PM,12.2,8.6,85,29.70,0.5,NE,3.5,-,0.03,Fog-Snow,Snow,50,2013-12-19 19:43:00
12:53 PM,12.0,9.0,88,29.87,0.5,NE,4.6,-,0.04,Fog-Snow,Snow,50,2013-12-19 19:53:00
1:06 PM,12.2,10.4,92,29.70,0.8,NE,3.5,-,0.01,Snow,Light Snow,50,2013-12-19 20:06:00
1:14 PM,12.2,10.4,92,29.70,1.0,ENE,4.6,-,0.01,Snow,Light Snow,60,2013-12-19 20:14:00
1:34 PM,12.2,10.4,92,29.71,0.5,NE,3.5,-,0.02,Fog-Snow,Snow,40,2013-12-19 20:34:00
1:53 PM,12.0,10.0,92,29.89,0.5,Calm,Calm,-,0.03,Fog-Snow,Snow,0,2013-12-19 20:53:00
2:32 PM,12.2,10.4,92,29.73,0.8,Calm,Calm,-,0.03,Snow,Light Snow,0,2013-12-19 21:32:00
2:40 PM,12.2,10.4,92,29.73,1.0,Calm,Calm,-,0.03,Snow,Light Snow,0,2013-12-19 21:40:00
2:53 PM,12.9,10.0,88,29.91,1.8,Calm,Calm,-,0.03,Snow,Light Snow,0,2013-12-19 21:53:00
3:16 PM,12.2,10.4,92,29.75,2.0,Calm,Calm,-,0.01,Snow,Light Snow,0,2013-12-19 22:16:00
3:26 PM,12.2,10.4,92,29.75,1.5,East,3.5,-,0.01,Snow,Light Snow,90,2013-12-19 22:26:00
3:53 PM,12.9,10.0,88,29.95,2.0,Calm,Calm,-,0.01,Snow,Light Snow,0,2013-12-19 22:53:00
4:00 PM,12.2,10.4,92,29.77,1.2,Calm,Calm,-,0.00,Snow,Light Snow,0,2013-12-19 23:00:00
4:04 PM,12.2,10.4,92,29.77,0.8,Variable,3.5,-,0.00,Snow,Light Snow,0,2013-12-19 23:04:00
4:30 PM,10.4,8.6,92,29.77,1.0,South,3.5,-,0.01,Snow,Light Snow,190,2013-12-19 23:30:00
4:39 PM,10.4,8.6,92,29.78,3.0,Calm,Calm,-,0.01,Snow,Light Snow,0,2013-12-19 23:39:00
4:51 PM,10.4,6.8,85,29.78,2.5,Calm,Calm,-,0.01,Snow,Light Snow,0,2013-12-19 23:51:00
4:53 PM,10.0,7.0,87,29.98,3.0,Calm,Calm,-,0.01,Snow,Light Snow,0,2013-12-19 23:53:00
5:24 PM,8.6,6.8,92,29.78,10.0,South,3.5,-,0.00,,Overcast,180,2013-12-20 00:24:00
5:53 PM,8.1,5.0,87,30.00,10.0,South,4.6,-,0.00,,Partly Cloudy,180,2013-12-20 00:53:00
6:53 PM,3.0,-0.0,87,30.03,10.0,SSW,3.5,-,N/A,,Scattered Clouds,200,2013-12-20 01:53:00
7:53 PM,1.9,-0.9,88,30.04,10.0,Calm,Calm,-,N/A,,Overcast,0,2013-12-20 02:53:00
8:53 PM,1.9,-0.9,88,30.04,8.0,ESE,3.5,-,N/A,,Overcast,110,2013-12-20 03:53:00
9:53 PM,1.9,-2.0,83,30.06,10.0,Calm,Calm,-,N/A,,Overcast,0,2013-12-20 04:53:00
10:53 PM,-0.9,-5.1,83,30.05,10.0,Calm,Calm,-,N/A,,Clear,0,2013-12-20 05:53:00
11:53 PM,1.0,-2.9,83,30.04,10.0,West,4.6,-,N/A,,Overcast,270,2013-12-20 06:53:00